Home > Time Zones > World Clock > Weather > Iran > Tehran > Past weeks

Flag for Iran Weather past 2 weeks in Tehran, Iran

Now
93 °F

Sunny.


Feels Like: 89 °F
Forecast: 79 / 105 °F
Wind: 5 mph from South

Location: Tehran-Mehrabad

Current Time: Jul 25, 2014 at 9:53:34 AM

Latest Report: Jul 25, 2014 at 9:30 AM


Visibility: 10 mi

Pressure: 29.86 "Hg

Humidity: 13%

Dew point: 36 °F

Location of TehranLocation

Historic Weather in Tehran — Graph

°F

Tehran temperature yesterday

Maximum temperature yesterday: 99 °F (at 4:30 PM)
Minimum temperature yesterday: 73 °F (at 5:00 AM)
Average temperature yesterday: 87 °F

Past Weeks' High & Low Weather Summary

 TemperatureHumidityPressure
High104 °F (Jul 19, 5:00 PM)44% (Jul 21, 6:00 AM)32.90 "Hg (Jul 21, 6:00 AM)
Low70 °F (Jul 23, 6:00 AM)7% (Jul 11, 7:30 PM)29.62 "Hg (Jul 20, 6:30 PM)
Average92 °F17%29.81 "Hg
* Reported Jul 10 8:30 AM — Jul 25 8:30 AM, Tehran, Weather by CustomWeather, © 2014

Note: Actual official high and low records may vary slightly from our data, if they occured in-between our weather recording intervals... More about our weather records

Advertising

Tehran weather history for previous 24 hours

 ConditionsComfort  
Time TempWeatherWind HumidityBarometerVisibility
8:30 AM
Jul 25
91 °FSunny.5 mph16%29.86 "Hg10 mi
8:00 AM90 °FSunny.5 mph17%29.95 "Hg10 mi
7:30 AM88 °FClear.5 mph18%29.83 "Hg10 mi
7:00 AM88 °FClear.7 mph18%29.83 "Hg10 mi
6:30 AM86 °FPassing clouds.7 mph20%29.83 "HgN/A
6:00 AM86 °FPassing clouds.7 mph22%29.83 "HgN/A
5:30 AM86 °FPassing clouds.No wind20%29.80 "HgN/A
5:00 AM86 °FPassing clouds.7 mph19%29.80 "HgN/A
4:30 AM88 °FPassing clouds.7 mph18%29.80 "HgN/A
4:00 AM90 °FPassing clouds.7 mph16%29.80 "HgN/A
3:30 AM91 °FPassing clouds.5 mph14%29.80 "HgN/A
3:00 AM91 °FPassing clouds.7 mph15%29.80 "HgN/A
2:30 AM91 °FPassing clouds.5 mph17%29.80 "HgN/A
2:00 AM91 °FPassing clouds.5 mph16%29.83 "HgN/A
1:30 AM93 °FPassing clouds.5 mph16%29.83 "HgN/A
1:00 AM93 °FPassing clouds.7 mph16%29.83 "HgN/A
12:30 AM90 °FPassing clouds.5 mph24%29.83 "HgN/A
12:00 AM91 °FPassing clouds.5 mph21%29.83 "HgN/A
11:30 PM
Jul 24
90 °FPassing clouds.5 mph24%29.83 "HgN/A
11:00 PM91 °FPassing clouds.5 mph20%29.83 "HgN/A
10:30 PM91 °FClear.5 mph21%29.83 "Hg10 mi
10:00 PM91 °FClear.No wind20%29.80 "Hg10 mi
9:30 PM91 °FSunny.5 mph18%29.80 "Hg10 mi
9:00 PM95 °FSunny.No wind13%29.80 "Hg10 mi
8:30 PM97 °FSunny.9 mph12%29.80 "Hg10 mi
8:00 PM97 °FSunny.9 mph12%29.80 "Hg10 mi
7:30 PM99 °FSunny.9 mph12%29.80 "Hg10 mi
6:30 PM99 °FSunny.9 mph12%29.80 "Hg10 mi
5:50 PM99 °FSunny.9 mph12%29.80 "Hg10 mi
5:30 PM99 °FSunny.9 mph12%29.80 "Hg10 mi
4:50 PM99 °FSunny.9 mph14%29.80 "Hg10 mi
4:30 PM99 °FSunny.9 mph14%29.80 "Hg10 mi
3:50 PM97 °FSunny.7 mph13%29.83 "Hg10 mi
3:30 PM97 °FSunny.7 mph13%29.83 "Hg10 mi
2:30 PM97 °FSunny.9 mph13%29.86 "Hg10 mi
2:00 PM93 °FSunny.5 mph17%29.86 "Hg10 mi
1:30 PM93 °FSunny.5 mph17%29.86 "Hg10 mi
1:00 PM91 °FSunny.7 mph18%29.89 "Hg10 mi
12:30 PM91 °FSunny.7 mph18%29.89 "Hg10 mi
12:00 PM90 °FSunny.5 mph18%29.92 "Hg10 mi
11:25 AM90 °FSunny.5 mph18%29.92 "Hg10 mi
11:00 AM88 °FSunny.9 mph19%29.92 "Hg10 mi
10:30 AM88 °FSunny.9 mph19%29.92 "Hg10 mi
10:00 AM86 °FSunny.9 mph22%29.92 "Hg4 mi
9:30 AM86 °FSunny.9 mph22%29.92 "Hg4 mi
9:00 AM82 °FSunny.5 mph25%29.89 "Hg4 mi
Weather by CustomWeather, © 2014

See weather overviewHow to use our weather pages